Location: The Saddle
(36.8333°N, 80.3417°W)
Time: 14:14:07
(UTC-05:00)

A-11 Canister half - Pass Details

Date: 17 December 2023
Orbit: 1512 x 1687 km, 47.2° (Epoch: 28 February)

Event Time Altitude Azimuth Distance (km) Brightness Sun altitude
Rises 17:45:18 0° 170° (S) 4,636 11.7 -7.7°
Reaches altitude 10° 17:50:55 10° 143° (SE) 3,665 10.8 -8.8°
Maximum altitude 17:54:10 12° 122° (ESE) 3,496 10.5 -9.4°
Drops below altitude 10° 17:57:26 10° 100° (E) 3,692 10.5 -10.0°
Enters shadow 17:58:49 - 92° (E) 3,877 10.5 -10.2°
Sets 18:03:05 0° 74° (ENE) 4,710 - -11.0°
